Location: Gellin
(53.4498°N, 14.3207°E)
Time: 23:32:36
(UTC+00:00)

Cosmos 2184 Rocket - Pass Details

Date: 03 March 2021
Orbit: 960 x 1001 km, 82.9° (Epoch: 12 April)

Event Time Altitude Azimuth Distance (km) Brightness Sun altitude
Rises 17:56:02 0° 195° (SSW) 3,633 7.1 -11.4°
Reaches altitude 10° 17:58:32 10° 197° (SSW) 2,693 6.5 -11.8°
Maximum altitude 18:04:41 74° 282° (WNW) 1,007 4.2 -12.7°
Drops below altitude 10° 18:10:57 10° 8° (N) 2,731 6.3 -13.6°
Sets 18:13:30 0° 11° (N) 3,689 7.0 -14.0°
